Tracking 25620 objects as of 18-May-2022
HD Live streaming from Space Station
objects crossing your sky now

NAVSTAR 61 (USA 199)

Track NAVSTAR 61 (USA 199) now!
NAVSTAR 61 (USA 199) is classified as:


NORAD ID: 32384
Int'l Code: 2007-062A
Perigee: 20,137.0 km
Apogee: 20,242.3 km
Inclination: 56.2 °
Period: 718.0 minutes
Semi major axis: 26560 km
RCS: 2 m2 (large)
Launch date: December 20, 2007
Source: United States (US)
Launch site: AIR FORCE EASTERN TEST RANGE (AFETR)
PRN: 29

The GPS 2R-18 spacecraft is the fifth in a series of eight with enhanced features designed to rejuvenate the GPS constellation
aabbcc
Your satellite tracking list
Your tracking list is empty




NASA's NSSDC Master Catalog

Two Line Element Set (TLE):
1 32384U 07062A   22137.78021007 -.00000057  00000-0  00000-0 0  9998
2 32384  56.2078 333.4415 0019814 134.0265 214.0324  2.00560135105595
Source of the keplerian elements: AFSPC